Time,TemperatureF,DewpointF,PressureIn,WindDirection,WindDirectionDegrees,WindSpeedMPH,WindSpeedGustMPH,Humidity,HourlyPrecipIn,Conditions,Clouds,dailyrainin,SoftwareType,DateUTC
2013-01-11 00:02:00,38.7,29.7,30.28,North,0,0.0,0.0,70,0.00,CLR,CLR,0.00,WeatherDisplay:10.37,2013-01-11 05:02:00,
2013-01-11 00:04:00,38.5,29.5,30.27,North,0,0.0,0.0,70,0.00,CLR,CLR,0.00,WeatherDisplay:10.37,2013-01-11 05:04:00,
2013-01-11 00:09:00,38.5,29.5,30.27,North,0,0.0,0.0,70,0.00,CLR,CLR,0.00,WeatherDisplay:10.37,2013-01-11 05:09:00,
2013-01-11 00:13:00,38.5,29.9,30.27,ESE,112,0.0,0.0,71,0.00,CLR,CLR,0.00,WeatherDisplay:10.37,2013-01-11 05:13:00,
2013-01-11 00:18:00,38.3,29.7,30.27,ESE,112,0.0,0.0,71,0.00,CLR,CLR,0.00,WeatherDisplay:10.37,2013-01-11 05:18:00,
2013-01-11 00:24:00,38.1,29.5,30.27,SE,135,0.0,0.0,71,0.00,CLR,CLR,0.00,WeatherDisplay:10.37,2013-01-11 05:24:00,
2013-01-11 00:29:00,38.1,29.9,30.27,SE,135,0.0,0.0,72,0.00,CLR,CLR,0.00,WeatherDisplay:10.37,2013-01-11 05:29:00,
2013-01-11 00:34:00,37.9,29.7,30.27,SE,135,0.0,0.0,72,0.00,CLR,CLR,0.00,WeatherDisplay:10.37,2013-01-11 05:34:00,
2013-01-11 00:39:00,37.9,29.7,30.27,SE,135,0.0,0.0,72,0.00,CLR,CLR,0.00,WeatherDisplay:10.37,2013-01-11 05:39:00,
2013-01-11 00:44:00,37.8,29.5,30.27,SE,135,0.0,0.0,72,0.00,CLR,CLR,0.00,WeatherDisplay:10.37,2013-01-11 05:44:00,
2013-01-11 00:50:00,37.8,29.5,30.27,SE,135,0.0,0.0,72,0.00,CLR,CLR,0.00,WeatherDisplay:10.37,2013-01-11 05:50:00,
2013-01-11 00:55:00,37.6,29.4,30.27,SE,135,0.0,0.0,72,0.00,CLR,CLR,0.00,WeatherDisplay:10.37,2013-01-11 05:55:00,
2013-01-11 01:00:00,37.4,29.5,30.27,SE,135,0.0,0.0,73,0.00,CLR,CLR,0.00,WeatherDisplay:10.37,2013-01-11 06:00:00,
2013-01-11 01:05:00,37.2,29.4,30.27,SE,135,0.0,0.0,73,0.00,CLR,CLR,0.00,WeatherDisplay:10.37,2013-01-11 06:05:00,
2013-01-11 01:10:00,37.0,29.2,30.26,SE,135,0.0,0.0,73,0.00,CLR,CLR,0.00,WeatherDisplay:10.37,2013-01-11 06:10:00,
2013-01-11 01:15:00,36.9,29.3,30.26,SE,135,0.0,0.0,74,0.00,CLR,CLR,0.00,WeatherDisplay:10.37,2013-01-11 06:15:00,
2013-01-11 01:21:00,36.7,29.2,30.26,SE,135,0.0,0.0,74,0.00,CLR,CLR,0.00,WeatherDisplay:10.37,2013-01-11 06:21:00,
2013-01-11 01:26:00,36.7,29.5,30.26,SE,135,0.0,0.0,75,0.00,CLR,CLR,0.00,WeatherDisplay:10.37,2013-01-11 06:26:00,
2013-01-11 01:31:00,36.5,29.3,30.26,SE,135,0.0,0.0,75,0.00,CLR,CLR,0.00,WeatherDisplay:10.37,2013-01-11 06:31:00,
2013-01-11 01:36:00,36.5,29.3,30.25,SE,135,0.0,0.0,75,0.00,CLR,CLR,0.00,WeatherDisplay:10.37,2013-01-11 06:36:00,
2013-01-11 01:42:00,36.3,29.2,30.26,SE,135,0.0,0.0,75,0.00,CLR,CLR,0.00,WeatherDisplay:10.37,2013-01-11 06:42:00,
2013-01-11 01:47:00,36.3,29.5,30.26,South,180,0.0,0.0,76,0.00,CLR,CLR,0.00,WeatherDisplay:10.37,2013-01-11 06:47:00,
2013-01-11 01:52:00,36.3,29.5,30.26,South,180,0.0,0.0,76,0.00,CLR,CLR,0.00,WeatherDisplay:10.37,2013-01-11 06:52:00,
2013-01-11 01:57:00,36.1,29.3,30.26,South,180,0.0,0.0,76,0.00,CLR,CLR,0.00,WeatherDisplay:10.37,2013-01-11 06:57:00,
2013-01-11 02:02:00,36.0,29.1,30.26,South,180,0.0,0.0,76,0.00,CLR,CLR,0.00,WeatherDisplay:10.37,2013-01-11 07:02:00,
2013-01-11 02:07:00,35.8,29.0,30.25,SE,135,0.0,0.0,76,0.00,CLR,CLR,0.00,WeatherDisplay:10.37,2013-01-11 07:07:00,
2013-01-11 02:12:00,35.6,29.1,30.26,SE,135,0.0,0.0,77,0.00,CLR,CLR,0.00,WeatherDisplay:10.37,2013-01-11 07:12:00,
2013-01-11 02:17:00,35.4,28.9,30.26,SE,135,0.0,0.0,77,0.00,CLR,CLR,0.00,WeatherDisplay:10.37,2013-01-11 07:17:00,
2013-01-11 02:22:00,35.4,28.9,30.26,SE,135,0.0,0.0,77,0.00,CLR,CLR,0.00,WeatherDisplay:10.37,2013-01-11 07:22:00,
2013-01-11 02:28:00,35.2,28.8,30.26,SE,135,0.0,0.0,77,0.00,CLR,CLR,0.00,WeatherDisplay:10.37,2013-01-11 07:28:00,
2013-01-11 02:33:00,35.2,28.8,30.26,SE,135,0.0,0.0,77,0.00,CLR,CLR,0.00,WeatherDisplay:10.37,2013-01-11 07:33:00,
2013-01-11 02:38:00,35.1,28.6,30.25,SSW,202,0.0,0.0,77,0.00,CLR,CLR,0.00,WeatherDisplay:10.37,2013-01-11 07:38:00,
2013-01-11 02:43:00,34.9,28.7,30.25,West,270,0.0,0.0,78,0.00,CLR,CLR,0.00,WeatherDisplay:10.37,2013-01-11 07:43:00,
2013-01-11 02:48:00,34.9,28.7,30.25,ESE,112,0.0,0.0,78,0.00,CLR,CLR,0.00,WeatherDisplay:10.37,2013-01-11 07:48:00,
2013-01-11 02:54:00,35.2,29.1,30.25,SE,135,0.0,0.0,78,0.00,CLR,CLR,0.00,WeatherDisplay:10.37,2013-01-11 07:54:00,
2013-01-11 02:59:00,35.4,29.6,30.25,SE,135,0.0,0.0,79,0.00,CLR,CLR,0.00,WeatherDisplay:10.37,2013-01-11 07:59:00,
2013-01-11 03:04:00,35.8,29.9,30.25,ESE,112,0.0,0.0,79,0.00,CLR,CLR,0.00,WeatherDisplay:10.37,2013-01-11 08:04:00,
2013-01-11 03:09:00,36.1,30.3,30.25,ESE,112,0.0,0.0,79,0.00,CLR,CLR,0.00,WeatherDisplay:10.37,2013-01-11 08:09:00,
2013-01-11 03:14:00,36.5,30.6,30.25,NE,45,0.0,0.0,79,0.00,CLR,CLR,0.00,WeatherDisplay:10.37,2013-01-11 08:14:00,
2013-01-11 03:20:00,36.7,30.5,30.24,NNW,338,0.0,0.0,78,0.00,CLR,CLR,0.00,WeatherDisplay:10.37,2013-01-11 08:20:00,
2013-01-11 03:25:00,36.7,30.5,30.24,NNW,338,0.0,0.0,78,0.00,CLR,CLR,0.00,WeatherDisplay:10.37,2013-01-11 08:25:00,
2013-01-11 03:30:00,36.3,30.1,30.23,NNW,338,0.0,0.0,78,0.00,CLR,CLR,0.00,WeatherDisplay:10.37,2013-01-11 08:30:00,
2013-01-11 03:35:00,36.1,29.9,30.23,NNW,338,0.0,0.0,78,0.00,CLR,CLR,0.00,WeatherDisplay:10.37,2013-01-11 08:35:00,
2013-01-11 03:40:00,35.8,29.3,30.22,NNW,338,0.0,0.0,77,0.00,CLR,CLR,0.00,WeatherDisplay:10.37,2013-01-11 08:40:00,
2013-01-11 03:45:00,35.8,29.6,30.23,NNW,338,0.0,0.0,78,0.00,CLR,CLR,0.00,WeatherDisplay:10.37,2013-01-11 08:45:00,
2013-01-11 03:51:00,35.6,29.4,30.22,NNW,338,0.0,0.0,78,0.00,CLR,CLR,0.00,WeatherDisplay:10.37,2013-01-11 08:51:00,
2013-01-11 03:56:00,35.4,29.2,30.23,NNW,338,0.0,0.0,78,0.00,CLR,CLR,0.00,WeatherDisplay:10.37,2013-01-11 08:56:00,
2013-01-11 04:01:00,35.4,29.2,30.23,ENE,68,0.0,0.0,78,0.00,CLR,CLR,0.00,WeatherDisplay:10.37,2013-01-11 09:01:00,
2013-01-11 04:06:00,35.2,29.4,30.22,ESE,112,0.0,0.0,79,0.00,CLR,CLR,0.00,WeatherDisplay:10.37,2013-01-11 09:06:00,
2013-01-11 04:11:00,35.2,29.4,30.22,East,90,0.0,0.0,79,0.00,CLR,CLR,0.00,WeatherDisplay:10.37,2013-01-11 09:11:00,
2013-01-11 04:17:00,35.4,29.6,30.23,SSE,158,0.0,0.0,79,0.00,CLR,CLR,0.00,WeatherDisplay:10.37,2013-01-11 09:17:00,
2013-01-11 04:22:00,35.4,29.6,30.23,SSE,158,0.0,0.0,79,0.00,CLR,CLR,0.00,WeatherDisplay:10.37,2013-01-11 09:22:00,
2013-01-11 04:27:00,35.4,29.6,30.22,ENE,68,0.0,0.0,79,0.00,CLR,CLR,0.00,WeatherDisplay:10.37,2013-01-11 09:27:00,
2013-01-11 04:32:00,35.4,29.6,30.22,NE,45,0.0,0.0,79,0.00,CLR,CLR,0.00,WeatherDisplay:10.37,2013-01-11 09:32:00,
2013-01-11 04:37:00,35.8,29.9,30.23,ESE,112,0.0,0.0,79,0.00,CLR,CLR,0.00,WeatherDisplay:10.37,2013-01-11 09:37:00,
2013-01-11 04:43:00,35.8,30.2,30.22,ESE,112,0.0,0.0,80,0.00,CLR,CLR,0.00,WeatherDisplay:10.37,2013-01-11 09:43:00,
2013-01-11 04:48:00,36.0,30.4,30.21,ESE,112,0.0,0.0,80,0.00,CLR,CLR,0.00,WeatherDisplay:10.37,2013-01-11 09:48:00,
2013-01-11 04:53:00,36.1,30.3,30.21,ESE,112,0.0,0.0,79,0.00,CLR,CLR,0.00,WeatherDisplay:10.37,2013-01-11 09:53:00,
2013-01-11 04:58:00,36.1,30.3,30.20,ESE,112,0.0,0.0,79,0.00,CLR,CLR,0.00,WeatherDisplay:10.37,2013-01-11 09:58:00,
2013-01-11 05:03:00,36.0,30.1,30.20,ESE,112,0.0,0.0,79,0.00,CLR,CLR,0.00,WeatherDisplay:10.37,2013-01-11 10:03:00,
2013-01-11 05:08:00,35.8,29.9,30.20,ESE,112,0.0,0.0,79,0.00,CLR,CLR,0.00,WeatherDisplay:10.37,2013-01-11 10:08:00,
2013-01-11 05:13:00,35.4,29.6,30.19,ESE,112,0.0,0.0,79,0.00,CLR,CLR,0.00,WeatherDisplay:10.37,2013-01-11 10:13:00,
2013-01-11 05:19:00,35.4,29.6,30.19,ESE,112,0.0,0.0,79,0.00,CLR,CLR,0.00,WeatherDisplay:10.37,2013-01-11 10:19:00,
2013-01-11 05:24:00,35.4,29.6,30.19,ESE,112,0.0,0.0,79,0.00,CLR,CLR,0.00,WeatherDisplay:10.37,2013-01-11 10:24:00,
2013-01-11 05:29:00,35.2,29.4,30.19,ESE,112,0.0,0.0,79,0.00,CLR,CLR,0.00,WeatherDisplay:10.37,2013-01-11 10:29:00,
2013-01-11 05:34:00,35.2,29.4,30.19,ESE,112,0.0,0.0,79,0.00,CLR,CLR,0.00,WeatherDisplay:10.37,2013-01-11 10:34:00,
2013-01-11 05:39:00,35.2,29.7,30.19,ESE,112,0.0,0.0,80,0.00,CLR,CLR,0.00,WeatherDisplay:10.37,2013-01-11 10:39:00,
2013-01-11 05:44:00,35.4,29.9,30.19,ESE,112,0.0,0.0,80,0.00,CLR,CLR,0.00,WeatherDisplay:10.37,2013-01-11 10:44:00,
2013-01-11 05:50:00,35.4,29.9,30.19,ESE,112,0.0,0.0,80,0.00,CLR,CLR,0.00,WeatherDisplay:10.37,2013-01-11 10:50:00,
2013-01-11 05:55:00,35.6,30.0,30.18,ESE,112,0.0,0.0,80,0.00,CLR,CLR,0.00,WeatherDisplay:10.37,2013-01-11 10:55:00,
2013-01-11 06:00:00,35.8,30.2,30.19,ESE,112,0.0,0.0,80,0.00,CLR,CLR,0.00,WeatherDisplay:10.37,2013-01-11 11:00:00,
2013-01-11 06:05:00,35.8,30.5,30.18,NNE,22,0.0,0.0,81,0.00,CLR,CLR,0.00,WeatherDisplay:10.37,2013-01-11 11:05:00,
2013-01-11 06:10:00,35.8,30.2,30.17,NNE,22,0.0,0.0,80,0.00,CLR,CLR,0.00,WeatherDisplay:10.37,2013-01-11 11:10:00,
2013-01-11 06:16:00,35.8,30.2,30.16,NNE,22,0.0,0.0,80,0.00,CLR,CLR,0.00,WeatherDisplay:10.37,2013-01-11 11:16:00,
2013-01-11 06:21:00,35.8,29.9,30.17,NNE,22,0.0,0.0,79,0.00,CLR,CLR,0.00,WeatherDisplay:10.37,2013-01-11 11:21:00,
2013-01-11 06:26:00,35.8,29.9,30.17,NNE,22,0.0,0.0,79,0.00,CLR,CLR,0.00,WeatherDisplay:10.37,2013-01-11 11:26:00,
2013-01-11 06:31:00,35.8,29.9,30.17,East,90,0.0,0.0,79,0.00,CLR,CLR,0.00,WeatherDisplay:10.37,2013-01-11 11:31:00,
2013-01-11 06:36:00,35.8,29.9,30.17,East,90,0.0,0.0,79,0.00,CLR,CLR,0.00,WeatherDisplay:10.37,2013-01-11 11:36:00,
2013-01-11 06:42:00,35.8,29.9,30.19,South,180,0.0,0.0,79,0.00,CLR,CLR,0.00,WeatherDisplay:10.37,2013-01-11 11:42:00,
2013-01-11 06:47:00,35.8,29.9,30.19,South,180,0.0,0.0,79,0.00,CLR,CLR,0.00,WeatherDisplay:10.37,2013-01-11 11:47:00,
2013-01-11 06:52:00,35.8,29.9,30.19,SSE,158,0.0,0.0,79,0.00,CLR,CLR,0.00,WeatherDisplay:10.37,2013-01-11 11:52:00,
2013-01-11 06:57:00,36.0,30.1,30.18,East,90,0.0,0.0,79,0.00,CLR,CLR,0.00,WeatherDisplay:10.37,2013-01-11 11:57:00,
2013-01-11 07:02:00,36.1,29.9,30.17,NE,45,0.0,0.0,78,0.00,CLR,CLR,0.00,WeatherDisplay:10.37,2013-01-11 12:02:00,
2013-01-11 07:08:00,36.5,30.3,30.18,NE,45,0.0,0.0,78,0.00,CLR,CLR,0.00,WeatherDisplay:10.37,2013-01-11 12:08:00,
2013-01-11 07:13:00,36.7,30.1,30.18,NE,45,0.0,0.0,77,0.00,CLR,CLR,0.00,WeatherDisplay:10.37,2013-01-11 12:13:00,
2013-01-11 07:18:00,36.7,30.1,30.18,NE,45,0.0,0.0,77,0.00,CLR,CLR,0.00,WeatherDisplay:10.37,2013-01-11 12:18:00,
2013-01-11 07:23:00,36.7,30.1,30.18,NE,45,0.0,0.0,77,0.00,CLR,CLR,0.00,WeatherDisplay:10.37,2013-01-11 12:23:00,
2013-01-11 07:28:00,36.7,30.1,30.19,SSW,202,0.0,0.0,77,0.00,CLR,CLR,0.00,WeatherDisplay:10.37,2013-01-11 12:28:00,
2013-01-11 07:34:00,36.9,30.3,30.17,NNW,338,0.0,0.0,77,0.00,CLR,CLR,0.00,WeatherDisplay:10.37,2013-01-11 12:34:00,
2013-01-11 07:39:00,36.9,30.3,30.18,SW,225,0.0,0.0,77,0.00,CLR,CLR,0.00,WeatherDisplay:10.37,2013-01-11 12:39:00,
2013-01-11 07:44:00,36.9,30.3,30.18,SW,225,0.0,0.0,77,0.00,CLR,CLR,0.00,WeatherDisplay:10.37,2013-01-11 12:44:00,
2013-01-11 07:49:00,37.0,30.5,30.18,SW,225,0.0,0.0,77,0.00,CLR,CLR,0.00,WeatherDisplay:10.37,2013-01-11 12:49:00,
2013-01-11 07:54:00,36.9,30.3,30.18,SW,225,0.0,0.0,77,0.00,CLR,CLR,0.00,WeatherDisplay:10.37,2013-01-11 12:54:00,
2013-01-11 07:59:00,36.9,30.3,30.17,SW,225,0.0,0.0,77,0.00,CLR,CLR,0.00,WeatherDisplay:10.37,2013-01-11 12:59:00,
2013-01-11 08:04:00,37.0,30.8,30.18,SW,225,0.0,0.0,78,0.00,CLR,CLR,0.00,WeatherDisplay:10.37,2013-01-11 13:04:00,
2013-01-11 08:09:00,37.0,30.8,30.17,SW,225,0.0,0.0,78,0.00,CLR,CLR,0.00,WeatherDisplay:10.37,2013-01-11 13:09:00,
2013-01-11 08:15:00,37.2,30.7,30.17,SW,225,0.0,0.0,77,0.00,CLR,CLR,0.00,WeatherDisplay:10.37,2013-01-11 13:15:00,
2013-01-11 08:20:00,37.2,30.7,30.17,WNW,292,0.0,0.0,77,0.00,CLR,CLR,0.00,WeatherDisplay:10.37,2013-01-11 13:20:00,
2013-01-11 08:25:00,37.6,31.0,30.18,West,270,0.0,0.0,77,0.00,CLR,CLR,0.00,WeatherDisplay:10.37,2013-01-11 13:25:00,
2013-01-11 08:31:00,37.8,31.2,30.18,North,0,0.0,0.0,77,0.00,CLR,CLR,0.00,WeatherDisplay:10.37,2013-01-11 13:31:00,
2013-01-11 08:36:00,38.1,31.5,30.16,NNW,338,0.0,0.0,77,0.00,CLR,CLR,0.00,WeatherDisplay:10.37,2013-01-11 13:36:00,
2013-01-11 08:41:00,38.5,31.9,30.16,NNE,22,0.0,0.0,77,0.00,CLR,CLR,0.00,WeatherDisplay:10.37,2013-01-11 13:41:00,
2013-01-11 08:46:00,38.5,31.9,30.16,NNE,22,0.0,0.0,77,0.00,CLR,CLR,0.00,WeatherDisplay:10.37,2013-01-11 13:46:00,
2013-01-11 08:52:00,39.0,32.1,30.15,NE,45,0.0,0.0,76,0.00,CLR,CLR,0.00,WeatherDisplay:10.37,2013-01-11 13:52:00,
2013-01-11 08:57:00,39.4,32.4,30.15,NNE,22,1.8,0.0,76,0.00,CLR,CLR,0.00,WeatherDisplay:10.37,2013-01-11 13:57:00,
2013-01-11 09:02:00,39.7,32.5,30.15,East,90,2.3,0.0,75,0.00,CLR,CLR,0.00,WeatherDisplay:10.37,2013-01-11 14:02:00,
2013-01-11 09:07:00,40.1,32.5,30.15,ESE,112,0.0,0.0,74,0.00,CLR,CLR,0.00,WeatherDisplay:10.37,2013-01-11 14:07:00,
2013-01-11 09:12:00,40.6,33.3,30.14,SE,135,0.0,0.0,75,0.00,CLR,CLR,0.00,WeatherDisplay:10.37,2013-01-11 14:12:00,
2013-01-11 09:18:00,41.2,33.5,30.15,ESE,112,3.5,3.5,74,0.00,CLR,CLR,0.00,WeatherDisplay:10.37,2013-01-11 14:18:00,
2013-01-11 09:23:00,41.5,33.5,30.14,NE,45,2.3,2.3,73,0.00,CLR,CLR,0.00,WeatherDisplay:10.37,2013-01-11 14:23:00,
2013-01-11 09:28:00,42.1,34.0,30.14,NNE,22,1.2,1.2,73,0.00,CLR,CLR,0.00,WeatherDisplay:10.37,2013-01-11 14:28:00,
2013-01-11 09:33:00,42.4,34.0,30.14,SE,135,4.2,4.2,72,0.00,CLR,CLR,0.00,WeatherDisplay:10.37,2013-01-11 14:33:00,
2013-01-11 09:38:00,42.6,33.9,30.13,ENE,68,5.8,5.8,71,0.00,CLR,CLR,0.00,WeatherDisplay:10.37,2013-01-11 14:38:00,
2013-01-11 09:43:00,42.6,33.9,30.13,East,90,5.8,5.8,71,0.00,CLR,CLR,0.00,WeatherDisplay:10.37,2013-01-11 14:43:00,
2013-01-11 09:49:00,42.8,34.0,30.13,SE,135,2.3,2.3,71,0.00,CLR,CLR,0.00,WeatherDisplay:10.37,2013-01-11 14:49:00,
2013-01-11 09:54:00,43.0,33.9,30.13,ESE,112,3.5,3.5,70,0.00,CLR,CLR,0.00,WeatherDisplay:10.37,2013-01-11 14:54:00,
2013-01-11 09:59:00,43.0,33.9,30.13,SE,135,4.6,4.6,70,0.00,CLR,CLR,0.00,WeatherDisplay:10.37,2013-01-11 14:59:00,
2013-01-11 10:04:00,43.0,33.9,30.13,NE,45,3.5,3.5,70,0.00,CLR,CLR,0.00,WeatherDisplay:10.37,2013-01-11 15:04:00,
2013-01-11 10:09:00,43.0,33.9,30.13,SE,135,6.3,6.3,70,0.00,CLR,CLR,0.00,WeatherDisplay:10.37,2013-01-11 15:09:00,
2013-01-11 10:15:00,43.3,34.2,30.12,ESE,112,2.3,2.3,70,0.00,CLR,CLR,0.00,WeatherDisplay:10.37,2013-01-11 15:15:00,
2013-01-11 10:20:00,43.5,34.4,30.13,SE,135,3.5,3.5,70,0.00,CLR,CLR,0.00,WeatherDisplay:10.37,2013-01-11 15:20:00,
2013-01-11 10:25:00,43.9,34.7,30.12,ESE,112,8.1,8.1,70,0.00,CLR,CLR,0.00,WeatherDisplay:10.37,2013-01-11 15:25:00,
2013-01-11 10:30:00,44.2,34.7,30.11,ESE,112,7.2,7.2,69,0.00,CLR,CLR,0.00,WeatherDisplay:10.37,2013-01-11 15:30:00,
2013-01-11 10:35:00,44.2,34.7,30.11,ESE,112,3.5,3.5,69,0.00,CLR,CLR,0.00,WeatherDisplay:10.37,2013-01-11 15:35:00,
2013-01-11 10:41:00,44.4,34.9,30.11,SE,135,4.6,4.6,69,0.00,CLR,CLR,0.00,WeatherDisplay:10.37,2013-01-11 15:41:00,
2013-01-11 10:46:00,44.8,34.9,30.11,NNE,22,4.6,4.6,68,0.00,CLR,CLR,0.00,WeatherDisplay:10.37,2013-01-11 15:46:00,
2013-01-11 10:51:00,45.0,35.0,30.10,NNE,22,3.5,3.5,68,0.00,CLR,CLR,0.00,WeatherDisplay:10.37,2013-01-11 15:51:00,
2013-01-11 10:56:00,45.3,35.0,30.10,SE,135,7.2,7.2,67,0.00,CLR,CLR,0.00,WeatherDisplay:10.37,2013-01-11 15:56:00,
2013-01-11 11:01:00,46.0,35.7,30.08,East,90,9.2,9.2,67,0.00,CLR,CLR,0.00,WeatherDisplay:10.37,2013-01-11 16:01:00,
2013-01-11 11:06:00,46.6,35.8,30.09,East,90,6.9,6.9,66,0.00,CLR,CLR,0.00,WeatherDisplay:10.37,2013-01-11 16:06:00,
2013-01-11 11:12:00,46.9,35.8,30.08,SE,135,10.4,10.4,65,0.00,CLR,CLR,0.00,WeatherDisplay:10.37,2013-01-11 16:12:00,
2013-01-11 11:17:00,46.9,35.8,30.08,ENE,68,10.4,10.4,65,0.00,CLR,CLR,0.00,WeatherDisplay:10.37,2013-01-11 16:17:00,
2013-01-11 11:22:00,46.9,35.0,30.06,SE,135,7.2,7.2,63,0.00,CLR,CLR,0.00,WeatherDisplay:10.37,2013-01-11 16:22:00,
2013-01-11 11:28:00,46.9,35.4,30.06,SE,135,6.9,6.9,64,0.00,CLR,CLR,0.00,WeatherDisplay:10.37,2013-01-11 16:28:00,
2013-01-11 11:33:00,46.9,35.0,30.06,ESE,112,6.9,6.9,63,0.00,CLR,CLR,0.00,WeatherDisplay:10.37,2013-01-11 16:33:00,
2013-01-11 11:38:00,47.1,35.2,30.06,ESE,112,10.5,10.5,63,0.00,CLR,CLR,0.00,WeatherDisplay:10.37,2013-01-11 16:38:00,
2013-01-11 11:43:00,46.9,35.0,30.05,East,90,9.2,9.2,63,0.00,CLR,CLR,0.00,WeatherDisplay:10.37,2013-01-11 16:43:00,
2013-01-11 11:48:00,46.9,35.0,30.05,ENE,68,8.1,8.1,63,0.00,CLR,CLR,0.00,WeatherDisplay:10.37,2013-01-11 16:48:00,
2013-01-11 11:53:00,47.1,35.2,30.04,ESE,112,11.2,11.2,63,0.00,CLR,CLR,0.00,WeatherDisplay:10.37,2013-01-11 16:53:00,
2013-01-11 11:58:00,47.3,35.3,30.04,ESE,112,2.3,0.0,63,0.00,CLR,CLR,0.00,WeatherDisplay:10.37,2013-01-11 16:58:00,
2013-01-11 12:04:00,47.8,35.8,30.03,SSE,158,4.6,4.6,63,0.00,CLR,CLR,0.00,WeatherDisplay:10.37,2013-01-11 17:04:00,
2013-01-11 12:09:00,48.0,36.0,30.04,East,90,5.8,5.8,63,0.00,CLR,CLR,0.00,WeatherDisplay:10.37,2013-01-11 17:09:00,
2013-01-11 12:14:00,47.8,35.8,30.03,ESE,112,6.9,6.9,63,0.00,CLR,CLR,0.00,WeatherDisplay:10.37,2013-01-11 17:14:00,
2013-01-11 12:19:00,47.5,35.5,30.02,ESE,112,8.1,8.1,63,0.00,CLR,CLR,0.00,WeatherDisplay:10.37,2013-01-11 17:19:00,
2013-01-11 12:24:00,47.3,35.3,30.04,SE,135,5.8,5.8,63,0.00,CLR,CLR,0.00,WeatherDisplay:10.37,2013-01-11 17:24:00,
2013-01-11 12:29:00,47.1,35.2,30.03,NNE,22,6.5,6.5,63,0.00,CLR,CLR,0.00,WeatherDisplay:10.37,2013-01-11 17:29:00,
2013-01-11 12:35:00,47.1,35.2,30.02,ESE,112,5.8,5.8,63,0.00,CLR,CLR,0.00,WeatherDisplay:10.37,2013-01-11 17:35:00,
2013-01-11 12:40:00,46.9,35.0,30.01,ESE,112,5.8,5.8,63,0.00,CLR,CLR,0.00,WeatherDisplay:10.37,2013-01-11 17:40:00,
2013-01-11 12:45:00,46.9,35.4,30.00,NNE,22,8.1,8.1,64,0.00,CLR,CLR,0.00,WeatherDisplay:10.37,2013-01-11 17:45:00,
2013-01-11 12:50:00,46.9,35.8,30.01,ESE,112,5.8,5.8,65,0.00,CLR,CLR,0.00,WeatherDisplay:10.37,2013-01-11 17:50:00,
2013-01-11 12:55:00,46.8,35.6,30.00,East,90,5.8,5.8,65,0.00,CLR,CLR,0.00,WeatherDisplay:10.37,2013-01-11 17:55:00,
2013-01-11 13:00:00,46.6,35.4,29.99,SE,135,3.5,3.5,65,0.00,CLR,CLR,0.00,WeatherDisplay:10.37,2013-01-11 18:00:00,
2013-01-11 13:05:00,46.2,35.5,29.99,ESE,112,5.4,5.4,66,0.00,CLR,CLR,0.00,WeatherDisplay:10.37,2013-01-11 18:05:00,
2013-01-11 13:10:00,46.2,35.5,29.99,NNE,22,5.8,5.8,66,0.00,CLR,CLR,0.00,WeatherDisplay:10.37,2013-01-11 18:10:00,
2013-01-11 13:15:00,46.2,35.5,29.99,SE,135,4.6,0.0,66,0.00,CLR,CLR,0.00,WeatherDisplay:10.37,2013-01-11 18:15:00,
2013-01-11 13:21:00,46.2,35.5,29.98,SE,135,4.6,4.6,66,0.00,CLR,CLR,0.00,WeatherDisplay:10.37,2013-01-11 18:21:00,
2013-01-11 13:26:00,46.2,35.5,29.98,ENE,68,9.2,9.2,66,0.00,CLR,CLR,0.00,WeatherDisplay:10.37,2013-01-11 18:26:00,
2013-01-11 13:31:00,46.2,35.5,29.98,ESE,112,4.2,4.2,66,0.00,CLR,CLR,0.00,WeatherDisplay:10.37,2013-01-11 18:31:00,
2013-01-11 13:36:00,46.2,35.9,29.98,ENE,68,4.6,4.6,67,0.00,CLR,CLR,0.00,WeatherDisplay:10.37,2013-01-11 18:36:00,
2013-01-11 13:41:00,46.2,35.9,29.98,ESE,112,7.6,7.6,67,0.00,CLR,CLR,0.00,WeatherDisplay:10.37,2013-01-11 18:41:00,
2013-01-11 13:46:00,46.2,35.9,29.99,ESE,112,6.5,6.5,67,0.00,CLR,CLR,0.00,WeatherDisplay:10.37,2013-01-11 18:46:00,
2013-01-11 13:51:00,46.0,36.1,29.98,East,90,5.1,5.1,68,0.00,CLR,CLR,0.00,WeatherDisplay:10.37,2013-01-11 18:51:00,
2013-01-11 13:56:00,45.7,36.1,29.98,SE,135,4.6,0.0,69,0.00,CLR,CLR,0.00,WeatherDisplay:10.37,2013-01-11 18:56:00,
2013-01-11 14:02:00,45.5,36.3,29.97,NNE,22,3.5,3.5,70,0.00,CLR,CLR,0.00,WeatherDisplay:10.37,2013-01-11 19:02:00,
2013-01-11 14:07:00,45.1,36.3,29.97,East,90,1.2,1.2,71,0.02,RA,RA,0.02,WeatherDisplay:10.37,2013-01-11 19:07:00,
2013-01-11 14:12:00,45.0,36.5,29.97,NE,45,1.2,0.0,72,0.02,RA,RA,0.02,WeatherDisplay:10.37,2013-01-11 19:12:00,
2013-01-11 14:17:00,44.8,36.7,29.97,ENE,68,0.0,0.0,73,0.02,CLR,CLR,0.02,WeatherDisplay:10.37,2013-01-11 19:17:00,
2013-01-11 14:22:00,44.6,36.8,29.97,ESE,112,1.2,0.0,74,0.02,CLR,CLR,0.02,WeatherDisplay:10.37,2013-01-11 19:22:00,
2013-01-11 14:28:00,44.4,37.0,29.96,ENE,68,2.3,2.3,75,0.02,CLR,CLR,0.02,WeatherDisplay:10.37,2013-01-11 19:28:00,
2013-01-11 14:33:00,44.4,37.0,29.97,NE,45,0.0,0.0,75,0.02,CLR,CLR,0.02,WeatherDisplay:10.37,2013-01-11 19:33:00,
2013-01-11 14:38:00,44.2,36.8,29.97,NNE,22,1.2,0.0,75,0.02,CLR,CLR,0.02,WeatherDisplay:10.37,2013-01-11 19:38:00,
2013-01-11 14:43:00,44.2,37.2,29.96,NNE,22,0.0,0.0,76,0.02,CLR,CLR,0.02,WeatherDisplay:10.37,2013-01-11 19:43:00,
2013-01-11 14:48:00,44.1,37.0,29.96,NE,45,1.3,0.0,76,0.02,CLR,CLR,0.02,WeatherDisplay:10.37,2013-01-11 19:48:00,
2013-01-11 14:53:00,43.9,37.1,29.95,East,90,0.0,0.0,77,0.04,RA,RA,0.04,WeatherDisplay:10.37,2013-01-11 19:53:00,
2013-01-11 14:59:00,43.9,37.1,29.95,NNE,22,0.0,0.0,77,0.06,RA,RA,0.06,WeatherDisplay:10.37,2013-01-11 19:59:00,
2013-01-11 15:04:00,43.7,37.3,29.96,NNE,22,0.0,0.0,78,0.06,RA,RA,0.08,WeatherDisplay:10.37,2013-01-11 20:04:00,
2013-01-11 15:09:00,43.5,37.1,29.96,NE,45,0.0,0.0,78,0.06,RA,RA,0.08,WeatherDisplay:10.37,2013-01-11 20:09:00,
2013-01-11 15:14:00,43.3,37.3,29.96,SE,135,0.0,0.0,79,0.08,RA,RA,0.10,WeatherDisplay:10.37,2013-01-11 20:14:00,
2013-01-11 15:19:00,43.3,37.6,29.95,NE,45,0.0,0.0,80,0.10,RA,RA,0.12,WeatherDisplay:10.37,2013-01-11 20:19:00,
2013-01-11 15:25:00,43.3,37.6,29.95,NE,45,0.0,0.0,80,0.10,RA,RA,0.12,WeatherDisplay:10.37,2013-01-11 20:25:00,
2013-01-11 15:30:00,43.2,37.7,29.95,NNE,22,0.0,0.0,81,0.10,,,0.12,WeatherDisplay:10.37,2013-01-11 20:30:00,
2013-01-11 15:35:00,43.2,37.7,29.93,NNE,22,0.0,0.0,81,0.10,CLR,CLR,0.12,WeatherDisplay:10.37,2013-01-11 20:35:00,
2013-01-11 15:40:00,43.0,37.5,29.93,NNE,22,0.0,0.0,81,0.10,CLR,CLR,0.12,WeatherDisplay:10.37,2013-01-11 20:40:00,
2013-01-11 15:46:00,43.0,37.9,29.93,NNE,22,2.0,2.2,82,0.12,RA,RA,0.14,WeatherDisplay:10.37,2013-01-11 20:46:00,
2013-01-11 15:51:00,43.0,37.9,29.93,North,0,0.0,0.0,82,0.12,RA,RA,0.14,WeatherDisplay:10.37,2013-01-11 20:51:00,
2013-01-11 15:56:00,43.0,38.2,29.94,North,0,0.0,0.0,83,0.10,,,0.14,WeatherDisplay:10.37,2013-01-11 20:56:00,
2013-01-11 16:01:00,43.0,38.2,29.94,NW,315,0.0,0.0,83,0.08,CLR,CLR,0.14,WeatherDisplay:10.37,2013-01-11 21:01:00,
2013-01-11 16:06:00,43.0,38.2,29.94,NW,315,0.0,0.0,83,0.06,CLR,CLR,0.14,WeatherDisplay:10.37,2013-01-11 21:06:00,
2013-01-11 16:12:00,42.6,37.8,29.94,NW,315,0.0,0.0,83,0.04,CLR,CLR,0.14,WeatherDisplay:10.37,2013-01-11 21:12:00,
2013-01-11 16:17:00,42.6,38.1,29.93,NW,315,0.0,0.0,84,0.04,CLR,CLR,0.14,WeatherDisplay:10.37,2013-01-11 21:17:00,
2013-01-11 16:22:00,42.6,38.1,29.93,NW,315,0.0,0.0,84,0.02,CLR,CLR,0.14,WeatherDisplay:10.37,2013-01-11 21:22:00,
2013-01-11 16:27:00,42.6,38.1,29.93,North,0,0.0,0.0,84,0.02,CLR,CLR,0.14,WeatherDisplay:10.37,2013-01-11 21:27:00,
2013-01-11 16:32:00,42.6,38.1,29.93,North,0,0.0,0.0,84,0.02,CLR,CLR,0.14,WeatherDisplay:10.37,2013-01-11 21:32:00,
2013-01-11 16:38:00,42.6,38.1,29.93,NE,45,0.0,0.0,84,0.02,CLR,CLR,0.14,WeatherDisplay:10.37,2013-01-11 21:38:00,
2013-01-11 16:43:00,42.8,38.3,29.93,North,0,1.2,0.0,84,0.02,CLR,CLR,0.14,WeatherDisplay:10.37,2013-01-11 21:43:00,
2013-01-11 16:48:00,43.0,38.5,29.92,NNE,22,3.1,3.1,84,0.00,CLR,CLR,0.14,WeatherDisplay:10.37,2013-01-11 21:48:00,
2013-01-11 16:53:00,43.0,38.8,29.93,SSE,158,3.5,3.5,85,0.00,CLR,CLR,0.14,WeatherDisplay:10.37,2013-01-11 21:53:00,
2013-01-11 16:58:00,43.0,38.8,29.93,North,0,0.0,0.0,85,0.00,CLR,CLR,0.14,WeatherDisplay:10.37,2013-01-11 21:58:00,
2013-01-11 17:03:00,43.0,38.8,29.93,ESE,112,0.0,0.0,85,0.00,CLR,CLR,0.14,WeatherDisplay:10.37,2013-01-11 22:03:00,
2013-01-11 17:09:00,43.0,38.8,29.93,ENE,68,0.0,0.0,85,0.00,CLR,CLR,0.14,WeatherDisplay:10.37,2013-01-11 22:09:00,
2013-01-11 17:14:00,43.0,38.8,29.93,NNW,338,0.0,0.0,85,0.00,CLR,CLR,0.14,WeatherDisplay:10.37,2013-01-11 22:14:00,
2013-01-11 17:19:00,43.0,38.8,29.93,NNW,338,0.9,0.9,85,0.00,CLR,CLR,0.14,WeatherDisplay:10.37,2013-01-11 22:19:00,
2013-01-11 17:24:00,43.0,38.8,29.93,NW,315,0.0,0.0,85,0.00,CLR,CLR,0.14,WeatherDisplay:10.37,2013-01-11 22:24:00,
2013-01-11 17:30:00,43.0,38.8,29.92,WNW,292,0.0,0.0,85,0.00,CLR,CLR,0.14,WeatherDisplay:10.37,2013-01-11 22:30:00,
2013-01-11 17:35:00,42.6,38.4,29.93,NNW,338,0.0,0.0,85,0.00,CLR,CLR,0.14,WeatherDisplay:10.37,2013-01-11 22:35:00,
2013-01-11 17:40:00,42.6,38.7,29.92,NNE,22,0.0,0.0,86,0.00,CLR,CLR,0.14,WeatherDisplay:10.37,2013-01-11 22:40:00,
2013-01-11 17:45:00,42.6,38.7,29.91,ENE,68,0.0,0.0,86,0.00,CLR,CLR,0.14,WeatherDisplay:10.37,2013-01-11 22:45:00,
2013-01-11 17:50:00,42.6,38.7,29.91,NE,45,0.0,0.0,86,0.00,CLR,CLR,0.14,WeatherDisplay:10.37,2013-01-11 22:50:00,
2013-01-11 17:56:00,42.6,38.7,29.92,NW,315,0.0,0.0,86,0.00,CLR,CLR,0.14,WeatherDisplay:10.37,2013-01-11 22:56:00,
2013-01-11 18:01:00,42.6,38.7,29.91,NNW,338,0.0,0.0,86,0.00,CLR,CLR,0.14,WeatherDisplay:10.37,2013-01-11 23:01:00,
2013-01-11 18:06:00,42.6,38.7,29.91,NW,315,0.0,0.0,86,0.00,CLR,CLR,0.14,WeatherDisplay:10.37,2013-01-11 23:06:00,
2013-01-11 18:11:00,42.6,38.7,29.91,NNW,338,0.0,0.0,86,0.00,CLR,CLR,0.14,WeatherDisplay:10.37,2013-01-11 23:11:00,
2013-01-11 18:16:00,42.4,38.5,29.91,NNW,338,0.0,0.0,86,0.00,CLR,CLR,0.14,WeatherDisplay:10.37,2013-01-11 23:16:00,
2013-01-11 18:21:00,42.4,38.5,29.92,NNW,338,0.0,0.0,86,0.00,CLR,CLR,0.14,WeatherDisplay:10.37,2013-01-11 23:21:00,
2013-01-11 18:27:00,42.6,39.0,29.91,NNW,338,0.0,0.0,87,0.00,CLR,CLR,0.14,WeatherDisplay:10.37,2013-01-11 23:27:00,
2013-01-11 18:32:00,42.4,38.8,29.91,NW,315,0.0,0.0,87,0.00,CLR,CLR,0.14,WeatherDisplay:10.37,2013-01-11 23:32:00,
2013-01-11 18:37:00,42.4,38.8,29.92,WNW,292,0.0,0.0,87,0.00,CLR,CLR,0.14,WeatherDisplay:10.37,2013-01-11 23:37:00,
2013-01-11 18:42:00,42.4,38.8,29.92,NW,315,0.0,0.0,87,0.00,CLR,CLR,0.14,WeatherDisplay:10.37,2013-01-11 23:42:00,
2013-01-11 18:47:00,42.4,38.5,29.92,NW,315,0.0,0.4,86,0.00,CLR,CLR,0.14,WeatherDisplay:10.37,2013-01-11 23:47:00,
2013-01-11 18:52:00,42.4,38.5,29.91,NW,315,5.1,5.1,86,0.00,CLR,CLR,0.14,WeatherDisplay:10.37,2013-01-11 23:52:00,
2013-01-11 18:57:00,42.3,38.4,29.91,North,0,3.5,3.5,86,0.00,CLR,CLR,0.14,WeatherDisplay:10.37,2013-01-11 23:57:00,
2013-01-11 19:02:00,42.1,38.5,29.92,NNW,338,0.0,0.0,87,0.00,CLR,CLR,0.14,WeatherDisplay:10.37,2013-01-12 00:02:00,
2013-01-11 19:08:00,42.1,38.5,29.93,NNW,338,0.0,0.0,87,0.00,CLR,CLR,0.14,WeatherDisplay:10.37,2013-01-12 00:08:00,
2013-01-11 19:13:00,42.1,38.5,29.92,NW,315,0.0,0.0,87,0.00,CLR,CLR,0.14,WeatherDisplay:10.37,2013-01-12 00:13:00,
2013-01-11 19:18:00,42.1,38.5,29.91,North,0,0.0,0.0,87,0.00,CLR,CLR,0.14,WeatherDisplay:10.37,2013-01-12 00:18:00,
2013-01-11 19:23:00,42.1,38.5,29.92,North,0,0.0,0.0,87,0.00,CLR,CLR,0.14,WeatherDisplay:10.37,2013-01-12 00:23:00,
2013-01-11 19:28:00,42.1,38.5,29.91,North,0,0.0,0.0,87,0.00,CLR,CLR,0.14,WeatherDisplay:10.37,2013-01-12 00:28:00,
2013-01-11 19:34:00,42.1,38.5,29.91,NNW,338,0.0,0.0,87,0.00,CLR,CLR,0.14,WeatherDisplay:10.37,2013-01-12 00:34:00,
2013-01-11 19:39:00,42.1,38.5,29.91,North,0,0.0,0.0,87,0.00,CLR,CLR,0.14,WeatherDisplay:10.37,2013-01-12 00:39:00,
2013-01-11 19:44:00,42.1,38.5,29.91,North,0,0.0,0.0,87,0.00,CLR,CLR,0.14,WeatherDisplay:10.37,2013-01-12 00:44:00,
2013-01-11 19:49:00,41.9,38.3,29.91,NNW,338,0.0,0.0,87,0.00,CLR,CLR,0.14,WeatherDisplay:10.37,2013-01-12 00:49:00,
2013-01-11 19:54:00,41.9,38.3,29.91,WNW,292,0.0,0.0,87,0.00,CLR,CLR,0.14,WeatherDisplay:10.37,2013-01-12 00:54:00,
2013-01-11 20:00:00,41.9,38.3,29.91,WNW,292,0.0,0.0,87,0.00,CLR,CLR,0.14,WeatherDisplay:10.37,2013-01-12 01:00:00,
2013-01-11 20:05:00,41.9,38.3,29.91,WNW,292,0.0,0.0,87,0.00,CLR,CLR,0.14,WeatherDisplay:10.37,2013-01-12 01:05:00,
2013-01-11 20:11:00,41.9,38.3,29.91,NW,315,0.0,0.0,87,0.00,CLR,CLR,0.14,WeatherDisplay:10.37,2013-01-12 01:11:00,
2013-01-11 20:16:00,41.9,38.3,29.91,WNW,292,0.0,0.0,87,0.00,CLR,CLR,0.14,WeatherDisplay:10.37,2013-01-12 01:16:00,
2013-01-11 20:21:00,41.7,38.1,29.91,NW,315,0.0,0.0,87,0.00,CLR,CLR,0.14,WeatherDisplay:10.37,2013-01-12 01:21:00,
2013-01-11 20:26:00,41.7,38.1,29.90,NW,315,0.0,0.0,87,0.00,CLR,CLR,0.14,WeatherDisplay:10.37,2013-01-12 01:26:00,
2013-01-11 20:31:00,41.5,38.0,29.90,WNW,292,0.0,0.0,87,0.00,CLR,CLR,0.14,WeatherDisplay:10.37,2013-01-12 01:31:00,
2013-01-11 20:37:00,41.5,38.0,29.91,West,270,0.0,0.0,87,0.00,CLR,CLR,0.14,WeatherDisplay:10.37,2013-01-12 01:37:00,
2013-01-11 20:42:00,41.5,38.0,29.91,NNW,338,1.3,1.3,87,0.00,CLR,CLR,0.14,WeatherDisplay:10.37,2013-01-12 01:42:00,
2013-01-11 20:47:00,41.4,38.1,29.91,NW,315,0.0,0.0,88,0.00,CLR,CLR,0.14,WeatherDisplay:10.37,2013-01-12 01:47:00,
2013-01-11 20:52:00,41.2,37.9,29.91,WNW,292,0.0,0.0,88,0.00,CLR,CLR,0.14,WeatherDisplay:10.37,2013-01-12 01:52:00,
2013-01-11 20:57:00,41.2,37.9,29.91,WNW,292,0.0,0.0,88,0.00,CLR,CLR,0.14,WeatherDisplay:10.37,2013-01-12 01:57:00,
2013-01-11 21:02:00,41.0,37.7,29.91,WNW,292,0.0,0.0,88,0.00,CLR,CLR,0.14,WeatherDisplay:10.37,2013-01-12 02:02:00,
2013-01-11 21:08:00,41.0,37.7,29.91,WNW,292,1.2,1.2,88,0.00,CLR,CLR,0.14,WeatherDisplay:10.37,2013-01-12 02:08:00,
2013-01-11 21:13:00,41.0,37.7,29.91,West,270,1.3,1.3,88,0.00,CLR,CLR,0.14,WeatherDisplay:10.37,2013-01-12 02:13:00,
2013-01-11 21:18:00,40.8,37.5,29.91,WNW,292,1.3,0.0,88,0.00,CLR,CLR,0.14,WeatherDisplay:10.37,2013-01-12 02:18:00,
2013-01-11 21:23:00,40.8,37.5,29.91,WNW,292,0.0,0.0,88,0.00,CLR,CLR,0.14,WeatherDisplay:10.37,2013-01-12 02:23:00,
2013-01-11 21:28:00,40.8,37.5,29.90,WNW,292,0.0,0.0,88,0.00,CLR,CLR,0.14,WeatherDisplay:10.37,2013-01-12 02:28:00,
2013-01-11 21:33:00,40.6,37.4,29.91,NW,315,1.6,1.6,88,0.00,CLR,CLR,0.14,WeatherDisplay:10.37,2013-01-12 02:33:00,
2013-01-11 21:38:00,40.6,37.4,29.91,NW,315,1.2,0.0,88,0.00,CLR,CLR,0.14,WeatherDisplay:10.37,2013-01-12 02:38:00,
2013-01-11 21:43:00,40.5,37.2,29.91,NW,315,3.5,3.5,88,0.00,CLR,CLR,0.14,WeatherDisplay:10.37,2013-01-12 02:43:00,
2013-01-11 21:49:00,40.3,37.0,29.92,NW,315,2.3,2.3,88,0.00,CLR,CLR,0.14,WeatherDisplay:10.37,2013-01-12 02:49:00,
2013-01-11 21:54:00,40.1,36.8,29.91,NW,315,0.0,0.0,88,0.00,CLR,CLR,0.14,WeatherDisplay:10.37,2013-01-12 02:54:00,
2013-01-11 21:59:00,40.1,36.8,29.91,NW,315,1.2,0.0,88,0.00,CLR,CLR,0.14,WeatherDisplay:10.37,2013-01-12 02:59:00,
2013-01-11 22:04:00,39.9,36.7,29.91,North,0,2.9,2.9,88,0.00,CLR,CLR,0.14,WeatherDisplay:10.37,2013-01-12 03:04:00,
2013-01-11 22:10:00,39.9,36.7,29.91,NW,315,0.0,0.0,88,0.00,CLR,CLR,0.14,WeatherDisplay:10.37,2013-01-12 03:10:00,
2013-01-11 22:15:00,39.9,36.7,29.91,NNW,338,2.3,2.3,88,0.00,CLR,CLR,0.14,WeatherDisplay:10.37,2013-01-12 03:15:00,
2013-01-11 22:20:00,39.7,36.5,29.91,WNW,292,0.0,0.0,88,0.00,CLR,CLR,0.14,WeatherDisplay:10.37,2013-01-12 03:20:00,
2013-01-11 22:25:00,39.7,36.5,29.91,WNW,292,0.0,0.0,88,0.00,CLR,CLR,0.14,WeatherDisplay:10.37,2013-01-12 03:25:00,
2013-01-11 22:30:00,39.7,36.5,29.91,WNW,292,0.0,0.0,88,0.00,CLR,CLR,0.14,WeatherDisplay:10.37,2013-01-12 03:30:00,
2013-01-11 22:35:00,39.6,36.3,29.91,NW,315,0.0,0.0,88,0.00,CLR,CLR,0.14,WeatherDisplay:10.37,2013-01-12 03:35:00,
2013-01-11 22:41:00,39.6,36.3,29.91,NW,315,0.0,0.3,88,0.00,CLR,CLR,0.14,WeatherDisplay:10.37,2013-01-12 03:41:00,
2013-01-11 22:46:00,39.6,36.3,29.91,WNW,292,0.0,0.0,88,0.00,CLR,CLR,0.14,WeatherDisplay:10.37,2013-01-12 03:46:00,
2013-01-11 22:51:00,39.6,36.3,29.91,WNW,292,0.0,0.0,88,0.00,CLR,CLR,0.14,WeatherDisplay:10.37,2013-01-12 03:51:00,
2013-01-11 22:56:00,39.6,36.3,29.91,WNW,292,0.0,0.0,88,0.00,CLR,CLR,0.14,WeatherDisplay:10.37,2013-01-12 03:56:00,
2013-01-11 23:01:00,39.6,36.3,29.91,WNW,292,0.0,0.0,88,0.00,CLR,CLR,0.14,WeatherDisplay:10.37,2013-01-12 04:01:00,
2013-01-11 23:06:00,39.6,36.3,29.91,WNW,292,0.0,0.0,88,0.00,CLR,CLR,0.14,WeatherDisplay:10.37,2013-01-12 04:06:00,
2013-01-11 23:12:00,39.6,36.3,29.91,WNW,292,0.0,0.0,88,0.00,CLR,CLR,0.14,WeatherDisplay:10.37,2013-01-12 04:12:00,
2013-01-11 23:17:00,39.6,36.3,29.90,WNW,292,0.0,0.0,88,0.00,CLR,CLR,0.14,WeatherDisplay:10.37,2013-01-12 04:17:00,
2013-01-11 23:22:00,39.7,36.5,29.91,WNW,292,0.0,0.0,88,0.00,CLR,CLR,0.14,WeatherDisplay:10.37,2013-01-12 04:22:00,
2013-01-11 23:27:00,39.7,36.5,29.91,WNW,292,0.0,0.0,88,0.00,CLR,CLR,0.14,WeatherDisplay:10.37,2013-01-12 04:27:00,
2013-01-11 23:32:00,39.7,36.5,29.91,WNW,292,0.0,0.0,88,0.00,CLR,CLR,0.14,WeatherDisplay:10.37,2013-01-12 04:32:00,
2013-01-11 23:38:00,39.7,36.5,29.91,West,270,0.0,0.0,88,0.00,CLR,CLR,0.14,WeatherDisplay:10.37,2013-01-12 04:38:00,
2013-01-11 23:43:00,39.6,36.3,29.90,West,270,0.0,0.0,88,0.00,CLR,CLR,0.14,WeatherDisplay:10.37,2013-01-12 04:43:00,
2013-01-11 23:48:00,39.6,36.3,29.91,West,270,0.0,0.0,88,0.00,CLR,CLR,0.14,WeatherDisplay:10.37,2013-01-12 04:48:00,
2013-01-11 23:53:00,39.6,36.3,29.91,West,270,0.0,0.0,88,0.00,CLR,CLR,0.14,WeatherDisplay:10.37,2013-01-12 04:53:00,
2013-01-11 23:59:00,39.6,36.3,29.91,West,270,0.0,0.0,88,0.00,CLR,CLR,0.14,WeatherDisplay:10.37,2013-01-12 04:59:00,